Other Public Products
Issued by NWS Grand Forks, ND

Home | Current Version | Previous Version | Graphics & Text | Print | Product List | Glossary On
Versions: 1 2 3 4 5 6 7 8 9 10 11 12 13 14 15 16 17 18 19 20 21 22 23 24 25 26 27 28 29 30 31 32 33 34 35 36 37 38 39 40 41 42 43 44 45 46 47 48 49 50
000
FPUS83 KFGF 212131
OPUFGF
PRAIRIE TO PINES WEATHER ROUNDUP
NATIONAL WEATHER SERVICE EASTERN NORTH DAKOTA/GRAND FORKS ND
400 PM CDT THU AUG 21 2014

 **SATELLITE DATA USED TO AUGMENT SKY COVER AT AUTOMATED STATIONS**
 *****  WEATHER ACROSS EASTERN NORTH DAKOTA  *****

CITY           SKY/WX    TMP DP  RH WIND       PRES   REMARKS
GRAND FORKS    CLOUDY    75  69  81 S5        29.79S
GRAND FORKS AF CLOUDY    76  71  85 SE6       29.81S
GRAND CITY NWS   N/A     61 N/A N/A SW2         N/A
BUXTON           N/A     78  73  85 CALM        N/A
DEVILS LAKE    PTSUNNY   75  66  73 N7        29.81S
FARGO          CLOUDY    76  69  79 E5        29.79R
WAHPETON ARPT  CLOUDY    77  64  65 CALM      29.80R
$$

 *****  WEATHER ACROSS CENTRAL AND WESTERN NORTH DAKOTA  *****

CITY           SKY/WX    TMP DP  RH WIND       PRES   REMARKS
JAMESTOWN      MOSUNNY   79  67  66 NW12      29.82R
BISMARCK       MOSUNNY   81  64  56 N10G21    29.88R
MINOT          PTSUNNY   76  61  59 NW12      29.88S
MINOT AFB      SUNNY     78  62  57 NW12      29.88R
GARRISON         N/A     76  63  64 N15G22    29.90R
WILLISTON      PTSUNNY   72  58  61 N9        29.96S
DICKINSON      MOSUNNY   79  59  50 N9        29.93S
HETTINGER      SUNNY     81  57  43 NW5       29.94S
$$

 *****  OTHER OBSERVATIONS NORTHEAST NORTH DAKOTA  *****

CITY           SKY/WX    TMP DP  RH WIND       PRES   REMARKS
WALHALLA         N/A     73  73 100 SE6       29.83S
LANGDON        CLOUDY    72  66  83 E3        29.85R
CAVALIER       CLOUDY    73  66  78 E5        29.82S
GRAFTON        CLOUDY    73  68  83 N10       29.81R
CANDO          MOCLDY    77  68  73 N12       29.85R
FORT TOTTEN    NOT AVBL
ROLLA          CLOUDY    70  70 100 NE12      29.88R
RUGBY          FAIR      75  68  78 NW10G18   29.85R
 ***** THE ABOVE OBSERVATIONS ARE NON NWS ARE NOT QUALITY
        CONTROLLED AND MAY MIS-REPORT RAIN FOR SNOW...
$$

 *****  OTHER OBSERVATIONS SOUTHEAST NORTH DAKOTA *****

CITY           SKY/WX    TMP DP  RH WIND       PRES   REMARKS
COOPERSTOWN    NOT AVBL
VALLEY CITY    MOCLDY    77  72  83 NE8       29.82S
OAKES          NOT AVBL
GWINNER        CLOUDY    81  70  69 N12       29.82R
BUFFALO          N/A     76  65  70 NE8         N/A
WYNDMERE       NOT AVBL
 ***** THE ABOVE OBSERVATIONS ARE NON NWS ARE NOT QUALITY
       CONTROLLED AND MAY MIS-REPORT RAIN FOR SNOW...
$$

  *****  WEATHER ACROSS NORTHERN MINNESOTA  *****

CITY           SKY/WX    TMP DP  RH WIND       PRES   REMARKS
FLAG ISLAND    LGT RAIN  66  63  88 SE7       29.87F
WARROAD        CLOUDY    66  63  88 E9        29.87F
ROSEAU         PTSUNNY   72  64  78 E9        29.85S
HALLOCK        SUNNY     73  66  78 E8        29.81S
THF RVR FALLS  CLOUDY    73  66  78 NE6       29.82R
HALSTAD          N/A     76  68  75 SE3         N/A
FOSSTON        CLOUDY    72  64  78 CALM      29.84R
BAUDETTE       CLOUDY    71  64  78 E9        29.86R
WASKISH        CLOUDY    73  66  78 CALM      29.85R
CROOKSTON      PTSUNNY   77  66  69 W5        29.81R
$$
  *****  WEATHER ACROSS CENTRAL AND WEST MINNESOTA  *****

CITY           SKY/WX    TMP DP  RH WIND       PRES   REMARKS
BEMIDJI        CLOUDY    73  65  77 SE3       29.84S
PARK RAPIDS    CLOUDY    72  66  81 SE7       29.83S
WADENA         LGT RAIN  70  66  88 E6        29.84R
DETROIT LAKES  PTSUNNY   73  68  83 SE3       29.83S
MOORHEAD       MOSUNNY   75  73  94 SE3       29.80S
FERGUS FALLS   CLOUDY    75  66  73 E6        29.80S
ELBOW LAKE     CLOUDY    77  70  80 CALM      29.81R
MORRIS MN      SUNNY     82  70  65 NE5       29.80R
STAPLES        CLOUDY    70  66  88 E6        29.84R
WHEATON        MOSUNNY   75  66  73 NE3       29.81R
$$
  *****  WEATHER ELSEWHERE ACROSS MINNESOTA  *****

CITY           SKY/WX    TMP DP  RH WIND       PRES   REMARKS
DULUTH         CLOUDY    66  60  81 E15       29.88F
INTRNTL FALLS  CLOUDY    69  62  78 SE8       29.87F
ELY            CLOUDY    64  57  77 SE8       29.92S
CLOQUET        CLOUDY    64  61  88 E9        29.88S
BRAINERD       CLOUDY    70  66  87 VRB5      29.83S
HIBBING        CLOUDY    73  62  68 SE12      29.88S
ALEXANDRIA     CLOUDY    73  69  87 E10       29.85R
SAINT CLOUD    CLOUDY    77  71  82 E7        29.80R
MINNEAPOLIS    CLOUDY    81  73  76 NE9       29.78R
$$

  *****  WEATHER ACROSS SOUTH DAKOTA  *****

CITY           SKY/WX    TMP DP  RH WIND       PRES   REMARKS
SIOUX FALLS    PTSUNNY   87  74  64 NW10      29.81R HX  95
BROOKINGS      NOT AVBL
WATERTOWN      MOSUNNY   81  69  67 NW14      29.83R
HURON          SUNNY     87  66  49 NW15G23   29.81R
SISSETON         N/A     81  70  69 NW7       29.79R
ABERDEEN       MOSUNNY   84  68  58 NW15      29.82R
MITCHELL       SUNNY     87  70  56 N9        29.83R HX  92
PIERRE         SUNNY     84  60  44 W10       29.86S
MOBRIDGE       SUNNY     83  64  52 NW10      29.85R
RAPID CITY     MOSUNNY   80  54  40 CALM      29.96S
$$

  *****  SOME WEATHER IN NEARBY STATES *****

CITY           SKY/WX    TMP DP  RH WIND       PRES   REMARKS
GLASGOW MT     LGT RAIN  67  58  72 S7        29.98S
GREAT FALLS MT CLOUDY    65  51  60 N6        30.09S
CHEYENNE WY    CLOUDY    78  40  25 W8G22     30.13F
SCOTTSBLUFF NE MOSUNNY   88  46  23 NW7       30.00F
OMAHA NE       MOSUNNY   91  68  46 SW9       29.83F HX  95
DES MOINES IA  MOSUNNY   86  75  69 S14       29.85S HX  95
DAVENPORT IA   LGT RAIN  78  73  84 S7        29.92S
CHICAGO IL     RAIN      74  70  87 VRB5      29.97R FOG
EAU CLAIRE WI  CLOUDY    76  70  82 SE12      29.84R
LA CROSSE WI   MOSUNNY   82  71  69 S14       29.83S
$$

  *****  SOME NATIONAL WEATHER *****

CITY           SKY/WX    TMP DP  RH WIND       PRES   REMARKS
LA GUARDIA NY  PTSUNNY   77  55  46 S14       30.02S
RALEIGH NC     PTSUNNY   90  67  46 CALM      30.04F HX  93
ATLANTA GA     MOSUNNY   83  70  64 SW12      30.12S
NEW ORLEANS LA TSTM      80  70  71 SE15G31   30.09S
OKLAHOMA CITY  MOSUNNY   97  67  37 S15G22    29.92F HX 101
ALBUQUERQUE NM PTSUNNY   86  40  19 W9        30.12F
SALT LAKE CITY FAIR      79  46  31 E9        30.05F
LOS ANGELES CA FAIR      75  61  61 W14       29.94F
BOISE ID       FAIR      82  41  23 NW7       29.95F
SEATTLE WA     PTSUNNY   66  49  54 SW6       30.04F
$$

*** WEATHER ACROSS MANITOBA...SASKATCHEWAN AND ONTARIO ***
                ***ONTARIO***

CITY           SKY/WX    TMP DP  RH WIND       PRES   REMARKS
GERALDTON      CLOUDY    70  63  78 S8        29.99F
THUNDER BAY    CLOUDY    66  61  82 E12       29.96S
SIOUX LOOKOUT  CLOUDY    72  61  68 SE6       29.92S
TORONTO        PTSUNNY   79  64  61 W7        29.94R
BIG TROUT LK   CLOUDY    73  61  64 S7        29.93S
PICKLE LAKE    CLOUDY    72  59  64 SE9       29.95F
DRYDEN         PTSUNNY   70  59  68 SE9       29.91S
KENORA         CLOUDY    68  61  77 SE9       29.90
$$
                *** MANITOBA***

CITY           SKY/WX    TMP DP  RH WIND       PRES   REMARKS
BRANDON        PTSUNNY   73  66  78 NE2       29.87S
DAUPHIN        CLOUDY    64  61  88 N12G17    29.92R
ISLAND LAKE    CLOUDY    75  68  78 W2        29.85S
PILOT MOUND      N/A     66  64  94 N9          N/A
THE PAS        CLOUDY    63  55  77 N14G20    29.97R
THOMPSON       LGT RAIN  55  55 100 N7        29.93R
WINNIPEG       PTSUNNY   77  66  69 NE6       29.83R
LYNN LAKE      CLOUDY    59  52  77 MISG      30.03R
CHURCHILL      LGT RAIN  46  46 100 N18       29.92R
GILLAM         LGT RAIN N/A N/A N/A N20         N/A
$$
                ***SASKATCHEWAN***

CITY           SKY/WX    TMP DP  RH WIND       PRES   REMARKS
ESTEVAN        PTSUNNY   68  61  77 NW8       29.96S
KINDERSLEY     CLOUDY    61  50  67 N14       30.13R
LLOYDMINSTER   PTSUNNY   61  43  51 N9        30.17R
PRINCE ALBERT  PTSUNNY   63  54  72 N13G20    30.09R
REGINA         PTSUNNY   64  55  72 N14G24    30.01R
YORKTON        MOSUNNY   70  55  60 N15G21    29.96R


USA.gov is the U.S. government's official web portal to all federal, state and local government web resources and services.